阿斯特拉 5B星 (ASTRA 5B)

导读

ASTRA 5B是由欧洲卫星运营商SES委托建造的通信卫星,于2014年3月22日成功发射。该卫星定点于东经31.5度地球静止轨道,主要承担中东、非洲及欧洲区域的广播和通信服务,携带高性能转发器可提供高清电视信号传输、宽带网络接入等服务,增强了SES在欧亚非地区的卫星通信覆盖能力,助力区域媒体传播与互联互通发展。

基本信息
目录编号:
39617
目录名称:
ASTRA 5B
国际标识:
2014-011B
轨道中心:
EARTH
卫星名称:
阿斯特拉 5B星
卫星全名:
阿斯特拉 5B星 (ASTRA 5B)
卫星状态:
在轨 (已飞行4510 天)
发射日期:
2014-03-22 UTC
国别 :
(SES)
星等 :
--
轨道信息
数据来源 国际轨道数据 AOE轨道数据
星历时间 2026-07-27T10:13:39+0800
19小时前
查看轨道信息
2026-07-27T04:00:00+0800
1天前
查看轨道信息
半长轴 42163.971km 42164.055km
偏心率 0.0002342 0.0002312
轨道倾角 0.057° 0.058°
近地点辐角 174.904° 172.850°
升交点赤经 320.911° 320.499°
平近点角 225.836° 134.632°
近地点 35775.959km 35776.169km
远地点 35795.709km 35795.667km
周期 1436.058分钟 1436.062分钟
每日圈数 1.002745 1.002742
详细信息
卫星平台:
Eurostar E3000
平衡模式:
三轴稳定
覆盖范围:
全球
运营商:
欧洲卫星公司
运营商所在国:
卢森堡
制造商(研发单位):
空客防务与航天公司
制造商所在国:
法国大都会
使用方式:
暂无
卫星简介
阿斯特拉卫星是由SES阿斯特拉运营的商业通信卫星,主要提供电视直播到户业务。Astra卫星包括三个系列共19颗卫星,分别定点在三个不同轨位:Astra-1系列包括十三颗卫星,定点东经19.2度;Astra-2系列包括4颗卫星,定点东经28.2度;Astra-3系列包括2颗卫星,定点东经23.5度。该卫星仍在工作。
2D轨道图
3D轨道图
轨道高度分析图
轨道倾角分析图
轨道综合分析图
查看轨道综合分析图